Home > Time Zones > World Clock > Weather > Iran > Tabriz > Past weeks

Flag for Iran Weather past 2 weeks in Tabriz, Iran

Now
34 °F

Passing clouds.


Feels Like: 30 °F
Forecast: 28 / 43 °F
Wind: 5 mph from Northeast

Location: Tabriz Airport

Current Time: Dec 21, 2014 at 8:23:31 PM

Latest Report: Dec 21, 2014 at 7:30 PM


Visibility: 4 mi

Pressure: 30.09 "Hg

Humidity: 81%

Dew point: 28 °F

Location of TabrizLocation

Historic Weather in Tabriz — Graph

°F

Tabriz temperature yesterday

Maximum temperature yesterday: 43 °F (at 3:00 PM)
Minimum temperature yesterday: 30 °F (at 3:30 AM)
Average temperature yesterday: 36 °F

Past Weeks' High & Low Weather Summary

 TemperatureHumidityPressure
High52 °F (Dec 9, 2:00 PM)100% (Dec 10, 3:30 AM)30.48 "Hg (Dec 10, 3:30 AM)
Low30 °F (Dec 19, 7:30 AM)50% (Dec 8, 1:00 PM)30.07 "Hg (Dec 21, 4:30 AM)
Average40 °F81%30.28 "Hg
* Reported Dec 6 6:30 PM — Dec 21 6:30 PM, Tabriz, Weather by CustomWeather, © 2014

Note: Actual official high and low records may vary slightly from our data, if they occured in-between our weather recording intervals... More about our weather records

Advertising

Tabriz weather history for previous 24 hours

 ConditionsComfort  
Time TempWeatherWind HumidityBarometerVisibility
6:30 PM
Dec 21
34 °FPassing clouds.5 mph81%30.09 "Hg4 mi
6:00 PM36 °FPassing clouds.5 mph81%30.07 "Hg4 mi
5:30 PM36 °FScattered clouds.5 mph81%30.07 "Hg4 mi
5:00 PM37 °FScattered clouds.7 mph75%30.07 "Hg4 mi
4:30 PM41 °FScattered clouds.7 mph66%30.07 "Hg4 mi
4:00 PM43 °FScattered clouds.7 mph61%30.07 "Hg4 mi
3:30 PM43 °FScattered clouds.9 mph61%30.07 "Hg4 mi
3:00 PM43 °FPassing clouds.5 mph61%30.07 "Hg4 mi
2:30 PM41 °FScattered clouds.9 mph66%30.07 "Hg4 mi
2:00 PM41 °FScattered clouds.9 mph66%30.07 "Hg4 mi
1:30 PM41 °FPassing clouds.9 mph66%30.07 "Hg4 mi
1:00 PM41 °FScattered clouds.5 mph66%30.07 "Hg4 mi
12:30 PM41 °FScattered clouds.7 mph66%30.09 "Hg3 mi
12:00 PM41 °FPassing clouds.No wind66%30.12 "Hg4 mi
11:30 AM41 °FScattered clouds.5 mph66%30.12 "Hg4 mi
11:00 AM37 °FPassing clouds.2 mph75%30.12 "Hg4 mi
10:30 AM39 °FPassing clouds.5 mph70%30.12 "Hg4 mi
10:00 AM37 °FPassing clouds.7 mph75%30.12 "Hg4 mi
9:30 AM37 °FPassing clouds.7 mph75%30.09 "Hg4 mi
9:00 AM37 °FHaze.No wind81%30.09 "Hg3 mi
8:30 AM36 °FFog.5 mph81%30.09 "Hg3 mi
8:00 AM34 °FFog.5 mph87%30.07 "Hg3 mi
7:30 AM32 °FIce fog.2 mph93%30.07 "Hg3 mi
7:00 AM32 °FPassing clouds.9 mph93%30.07 "Hg4 mi
6:30 AM34 °FFog.7 mph87%30.07 "Hg3 mi
4:30 AM34 °FFog.No wind100%30.07 "Hg1 mi
3:30 AM34 °FFog.No wind100%30.09 "Hg1 mi
2:30 AM34 °FFog.2 mph100%30.09 "Hg2 mi
1:30 AM36 °FFog.2 mph93%30.09 "Hg2 mi
12:30 AM36 °FFog.No wind93%30.09 "Hg2 mi
11:20 PM
Dec 20
36 °FFog.No wind87%30.12 "Hg2 mi
10:30 PM36 °FFog.No wind93%30.12 "Hg2 mi
9:30 PM36 °FFog.No wind93%30.12 "Hg2 mi
8:30 PM36 °FFog.2 mph93%30.12 "Hg2 mi
Weather by CustomWeather, © 2014

See weather overviewHow to use our weather pages